Chehalis, WA

1:42 PM PDT on September 28, 2016 (GMT -0700)
Chehalis-Centralia

Weather History for KCLS - September, 2013

Change the Weather History Date:

Sunday, September 22, 2013

  Actual Average (KOLM) Record (KOLM)
Temperature  
Mean Temperature 58 °F 57 °F  
Max Temperature 62 °F 70 °F 91 °F (1990)
Min Temperature 55 °F 45 °F 31 °F (1961)
Degree Days  
Heating Degree Days 6 8  
Month to date heating degree days 118  
Since 1 July heating degree days 268  
Cooling Degree Days 0 0  
Month to date cooling degree days 4  
Year to date cooling degree days 103  
Growing Degree Days 8 (Base 50)    
Moisture  
Dew Point 54 °F    
Average Humidity 92    
Maximum Humidity 100    
Minimum Humidity 77    
Precipitation  
Precipitation 0.36 in 0.06 in 1.50 in (1978)
Month to date precipitation 1.15  
Year to date precipitation 28.75  
Sea Level Pressure  
Sea Level Pressure 29.71 in    
Wind  
Wind Speed 8 mph (South)    
Max Wind Speed 18 mph    
Max Gust Speed 30 mph    
Visibility 8 miles    
Events Rain    
T = Trace of Precipitation, MM = Missing Value Source: NWS Daily Summary

Daily Weather History Graph

Daily Weather History Graph

Search for Another Location

Airport or City:

Trip Planner

Search our weather history database for the weather conditions in past years. The results will help you decide how hot, cold, wet, or windy it might be!

Date:

Astronomy

Sep. 22, 2013 Rise Set
Actual Time 6:59 AM PDT 7:08 PM PDT
Civil Twilight 6:29 AM PDT 7:39 PM PDT
Nautical Twilight 5:53 AM PDT 8:14 PM PDT
Astronomical Twilight 5:16 AM PDT 8:50 PM PDT
Moon 8:47 PM PDT (9/22) 10:39 AM PDT (9/22)
Length of Visible Light 13h 09m
Length of Day
12h 09m
Waning Gibbous, 88% of the Moon is Illuminated
Sep 22
Waning Gibbous
Sep 26
Last Quarter
Oct 4
New
Oct 11
First Quarter
Oct 18
Full

Hourly Weather History & Observations

Time (PDT) Temp. Dew Point Humidity Pressure Visibility Wind Dir Wind Speed Gust Speed Precip Events Conditions
12:15 AM 57.2 °F 55.4 °F 94% 29.76 in 10.0 mi SSE 6.9 mph - N/A   Overcast
12:35 AM 57.2 °F 55.4 °F 94% 29.75 in 10.0 mi South 5.8 mph - N/A   Overcast
12:55 AM 57.2 °F 55.4 °F 94% 29.75 in 10.0 mi South 6.9 mph - N/A   Overcast
1:15 AM 57.2 °F 55.4 °F 94% 29.75 in 10.0 mi South 6.9 mph - N/A   Overcast
1:35 AM 57.2 °F 53.6 °F 88% 29.75 in 10.0 mi South 5.8 mph - N/A   Mostly Cloudy
1:55 AM 57.2 °F 53.6 °F 88% 29.75 in 10.0 mi South 5.8 mph - N/A   Scattered Clouds
2:15 AM 55.4 °F 53.6 °F 94% 29.75 in 10.0 mi South 5.8 mph - N/A   Mostly Cloudy
2:35 AM 55.4 °F 53.6 °F 94% 29.75 in 10.0 mi South 6.9 mph - N/A   Overcast
2:55 AM 57.2 °F 53.6 °F 88% 29.75 in 10.0 mi South 6.9 mph - N/A   Overcast
3:15 AM 57.2 °F 53.6 °F 88% 29.75 in 5.0 mi SSW 5.8 mph - N/A   Overcast
3:35 AM 55.4 °F 53.6 °F 94% 29.75 in 10.0 mi South 5.8 mph - N/A   Mostly Cloudy
3:55 AM 55.4 °F 53.6 °F 94% 29.74 in 10.0 mi South 8.1 mph - N/A   Mostly Cloudy
4:15 AM 55.4 °F 53.6 °F 94% 29.73 in 10.0 mi South 9.2 mph - N/A   Unknown
4:35 AM 55.4 °F 53.6 °F 94% 29.73 in 10.0 mi South 11.5 mph 16.1 mph N/A   Unknown
4:55 AM 55.4 °F 53.6 °F 94% 29.73 in 10.0 mi South 8.1 mph - N/A   Scattered Clouds
5:15 AM 55.4 °F 53.6 °F 94% 29.73 in 7.0 mi South 8.1 mph - N/A   Overcast
5:35 AM 55.4 °F 53.6 °F 94% 29.73 in 10.0 mi South 9.2 mph - N/A   Overcast
5:55 AM 55.4 °F 53.6 °F 94% 29.73 in 10.0 mi South 9.2 mph 16.1 mph N/A   Overcast
6:15 AM 55.4 °F 53.6 °F 94% 29.73 in 10.0 mi South 9.2 mph - N/A   Overcast
6:35 AM 55.4 °F 53.6 °F 94% 29.73 in 7.0 mi South 8.1 mph - 0.01 in Rain Light Rain
6:55 AM 55.4 °F 53.6 °F 94% 29.73 in 8.0 mi South 9.2 mph - 0.02 in Rain Light Rain
7:15 AM 55.4 °F 53.6 °F 94% 29.72 in 10.0 mi South 9.2 mph - 0.01 in Rain Light Rain
7:35 AM 55.4 °F 53.6 °F 94% 29.72 in 3.0 mi South 10.4 mph - 0.01 in Rain Light Rain
7:55 AM 55.4 °F 53.6 °F 94% 29.71 in 10.0 mi South 10.4 mph - 0.01 in   Mostly Cloudy
8:15 AM 55.4 °F 53.6 °F 94% 29.70 in 10.0 mi South 15.0 mph 21.9 mph N/A   Overcast
8:35 AM 55.4 °F 53.6 °F 94% 29.69 in 8.0 mi South 12.7 mph 20.7 mph N/A   Mostly Cloudy
8:55 AM 55.4 °F 53.6 °F 94% 29.68 in 9.0 mi South 13.8 mph 19.6 mph N/A   Mostly Cloudy
9:15 AM 57.2 °F 53.6 °F 88% 29.67 in 10.0 mi South 15.0 mph 19.6 mph N/A   Mostly Cloudy
9:35 AM 57.2 °F 53.6 °F 88% 29.67 in 2.5 mi South 16.1 mph 25.3 mph N/A   Mostly Cloudy
9:55 AM 55.4 °F 53.6 °F 94% 29.66 in 1.8 mi South 13.8 mph 21.9 mph 0.01 in Rain Light Rain
10:15 AM 57.2 °F 53.6 °F 88% 29.65 in 2.0 mi South 18.4 mph 24.2 mph N/A   Overcast
10:35 AM 57.2 °F 53.6 °F 88% 29.64 in 4.0 mi South 15.0 mph 27.6 mph N/A   Overcast
10:55 AM 57.2 °F 53.6 °F 88% 29.63 in 3.0 mi South 13.8 mph 29.9 mph N/A   Haze
11:15 AM 57.2 °F 53.6 °F 88% 29.61 in 3.0 mi South 17.3 mph 28.8 mph N/A   Haze
11:35 AM 57.2 °F 53.6 °F 88% 29.62 in 2.5 mi South 16.1 mph 25.3 mph N/A   Mostly Cloudy
11:55 AM 57.2 °F 53.6 °F 88% 29.62 in 3.0 mi South 15.0 mph 23.0 mph N/A   Overcast
12:15 PM 55.4 °F 53.6 °F 94% 29.61 in 3.0 mi South 13.8 mph 24.2 mph 0.04 in   Overcast
12:35 PM 55.4 °F 53.6 °F 94% 29.61 in 2.5 mi SSE 11.5 mph 20.7 mph 0.09 in   Mostly Cloudy
12:55 PM 55.4 °F 53.6 °F 94% 29.61 in 5.0 mi South 12.7 mph 23.0 mph 0.09 in   Mostly Cloudy
1:15 PM 57.2 °F 55.4 °F 94% 29.65 in 2.0 mi West 6.9 mph 18.4 mph 0.04 in Rain Rain
1:35 PM 57.2 °F 55.4 °F 94% 29.65 in 3.0 mi SSW 5.8 mph - 0.12 in Rain Heavy Rain
1:55 PM 57.2 °F 55.4 °F 94% 29.65 in 1.5 mi SW 5.8 mph - 0.15 in Rain Light Rain
2:15 PM 57.2 °F 55.4 °F 94% 29.64 in 2.5 mi SSE 8.1 mph - 0.01 in   Partly Cloudy
2:35 PM 59.0 °F 55.4 °F 88% 29.65 in 10.0 mi South 10.4 mph - 0.01 in   Scattered Clouds
2:55 PM 59.0 °F 55.4 °F 88% 29.65 in 6.0 mi South 11.5 mph 17.3 mph 0.01 in   Mostly Cloudy
3:15 PM 60.8 °F 55.4 °F 82% 29.65 in 6.0 mi South 11.5 mph 17.3 mph N/A   Haze
3:35 PM 60.8 °F 55.4 °F 82% 29.65 in 7.0 mi South 11.5 mph 19.6 mph 0.01 in   Clear
3:55 PM 62.6 °F 55.4 °F 77% 29.65 in 5.0 mi South 11.5 mph 17.3 mph 0.01 in   Haze
4:15 PM 62.6 °F 55.4 °F 77% 29.66 in 6.0 mi SSE 10.4 mph 19.6 mph N/A   Haze
4:35 PM 60.8 °F 55.4 °F 82% 29.67 in 9.0 mi South 11.5 mph 21.9 mph N/A   Partly Cloudy
4:55 PM 59.0 °F 55.4 °F 88% 29.67 in 2.0 mi South 11.5 mph 17.3 mph 0.04 in Rain Rain
5:15 PM 59.0 °F 55.4 °F 88% 29.68 in 9.0 mi South 6.9 mph - 0.02 in Rain Light Rain
5:35 PM 59.0 °F 57.2 °F 94% 29.68 in 10.0 mi South 10.4 mph - 0.02 in   Mostly Cloudy
5:55 PM 59.0 °F 55.4 °F 88% 29.69 in 10.0 mi South 8.1 mph - 0.02 in   Overcast
6:15 PM 59.0 °F 55.4 °F 88% 29.71 in 10.0 mi SSW 4.6 mph - N/A   Overcast
6:35 PM 59.0 °F 55.4 °F 88% 29.71 in 10.0 mi South 5.8 mph - N/A   Mostly Cloudy
6:55 PM 57.2 °F 55.4 °F 94% 29.72 in 7.0 mi WSW 3.5 mph - N/A   Scattered Clouds
7:15 PM 57.2 °F 55.4 °F 94% 29.73 in 9.0 mi SSW 5.8 mph - N/A   Clear
7:35 PM 55.4 °F 53.6 °F 94% 29.74 in 9.0 mi SSW 4.6 mph - N/A   Unknown
7:55 PM 55.4 °F 55.4 °F 100% 29.74 in 8.0 mi South 5.8 mph - N/A   Overcast
8:15 PM 57.2 °F 55.4 °F 94% 29.75 in 7.0 mi South 5.8 mph - N/A   Overcast
8:35 PM 55.4 °F 53.6 °F 94% 29.76 in 10.0 mi SSW 5.8 mph - N/A   Overcast
8:55 PM 55.4 °F 53.6 °F 94% 29.77 in 8.0 mi SSW 5.8 mph - N/A   Overcast
9:15 PM 55.4 °F 53.6 °F 94% 29.78 in 8.0 mi SW 3.5 mph - N/A   Overcast
9:35 PM 55.4 °F 53.6 °F 94% 29.78 in 10.0 mi SSW 5.8 mph - N/A   Mostly Cloudy
9:55 PM 55.4 °F 53.6 °F 94% 29.79 in 10.0 mi SSW 4.6 mph - N/A   Mostly Cloudy
10:15 PM 55.4 °F 53.6 °F 94% 29.79 in 10.0 mi SSE 6.9 mph - N/A   Mostly Cloudy
10:35 PM 55.4 °F 53.6 °F 94% 29.80 in 10.0 mi South 5.8 mph - N/A   Overcast
10:55 PM 55.4 °F 53.6 °F 94% 29.80 in 10.0 mi South 5.8 mph - N/A   Overcast
11:15 PM 55.4 °F 53.6 °F 94% 29.80 in 10.0 mi South 5.8 mph - N/A   Overcast
11:35 PM 55.4 °F 53.6 °F 94% 29.81 in 10.0 mi SSW 3.5 mph - N/A   Overcast
11:55 PM 55.4 °F 53.6 °F 94% 29.82 in 10.0 mi SSW 4.6 mph - N/A   Overcast